Weather Service Report


771 
ASUS45 KABQ 302010
RWRNM 
WEATHER ROUNDUP FOR NEW MEXICO
NATIONAL WEATHER SERVICE ALBUQUERQUE NM
200 PM MDT MON MAR 30 2015

NOTE: "FAIR" MEANS FEW OR NO CLOUDS BELOW 12,000 FEET AGL WITH NO
       SIGNIFICANT WEATHER OR OBSTRUCTIONS TO VISION.

      THIS PRODUCT IS RELEASED AS TWO VERSIONS.  ONE VERSION NEAR
      THE TOP OF THE HOUR CONTAINING PRELIMINARY DATA FROM ALBUQUERQUE
      AND OTHER STATIONS.  A FINAL VERSION WITH ADDITIONAL DATA IS 
      ISSUED ABOUT 10 MINUTES AFTER THE HOUR.
 
NMZ501-503-504-510>518-302100-
NORTHWEST PLATEAU/NORTHCENTRAL MOUNTAINS
  
CITY           SKY/WX    TMP DP  RH WIND       PRES   REMARKS
FARMINGTON     SUNNY     74  15  10 CALM      30.18F                  
LOS ALAMOS     CLOUDY    59  25  26 CALM      30.30F                  
SANTA FE       MOSUNNY   70  19  14 W9G17     30.24F                  
TAOS           PTSUNNY   66  25  20 SW18G24   30.25F                  
ANGEL FIRE     FAIR      60  22  23 W15G26    30.31F                  

$$
NMZ402-403-502-505>509-302100-
WESTCENTRAL MOUNTAINS/SOUTHWEST MOUNTAINS
  
CITY           SKY/WX    TMP DP  RH WIND       PRES   REMARKS
GALLUP         MOSUNNY   72  13  10 S10G18    30.25F                  
GRANTS         MOSUNNY   70  11  10 E7        30.26F                  
SILVER CITY      N/A     75  21  13 NW5       30.23F                  

$$
NMZ407-409-411-412-302100-
SOUTHERN DESERTS
  
CITY           SKY/WX    TMP DP  RH WIND       PRES   REMARKS
LORDSBURG      FAIR      81  21  11 CALM      30.15F                  
DEMING         MOSUNNY   79  27  14 SW6       30.16F                  
LAS CRUCES     CLOUDY    79  26  14 SW9       30.18F                  
HOLLOMAN AFB   CLOUDY    79  28  15 S6        30.15F                  
ALAMOGORDO     CLOUDY    77  28  16 CALM      30.17F                  
T OR C         MOSUNNY   80  23  12 S10G17    30.16F                  

$$
NMZ519>523-302100-
CENTRAL VALLEYS/CENTRAL HIGHLANDS
  
CITY           SKY/WX    TMP DP  RH WIND       PRES   REMARKS
ALBUQUERQUE    MOSUNNY   73  21  14 W8        30.21F                  
DOUBLE EAGLE   MOSUNNY   72  16  12 S9G16     30.23F                  
MORIARTY ARPT  FAIR      75  13   9 W26       30.24F                  
CLINES CORNERS PTSUNNY   70  18  13 W25G31    30.25F                  
BELEN          FAIR      78  18  10 S7        30.18F                  
SOCORRO        FAIR      79  23  12 SE12      30.16F                  

$$
NMZ524>526-539-540-302100-
SOUTHCENTRAL MOUNTAINS
  
CITY           SKY/WX    TMP DP  RH WIND       PRES   REMARKS
RUIDOSO        PTSUNNY   72  23  16 SW15G28   30.30F                  

$$
NMZ527>531-302100-
NORTHEAST HIGHLANDS/NORTHEAST PLAINS
  
CITY           SKY/WX    TMP DP  RH WIND       PRES   REMARKS
LAS VEGAS      PTSUNNY   72  16  12 SW18G33   30.21F                  
RATON          CLOUDY    65  23  20 S3        30.19F                  
CLAYTON        CLOUDY    74  26  16 W13       30.12F                  

$$
NMZ532>537-302100-
EASTCENTRAL PLAINS
  
CITY           SKY/WX    TMP DP  RH WIND       PRES   REMARKS
TUCUMCARI      PTSUNNY   76  31  19 W12G18    30.11F                  
CANNON AFB     PTSUNNY   75  34  22 SW15G23   30.16F                  
CLOVIS AIRPORT MOSUNNY   73  36  25 SW13G22   30.17F                  

$$
NMZ028-029-538-302100-
SOUTHEAST PLAINS
  
CITY           SKY/WX    TMP DP  RH WIND       PRES   REMARKS
ROSWELL        CLOUDY    72  37  28 S14       30.16F                  
ARTESIA        CLOUDY    70  43  37 S8G15     30.18F                  
CARLSBAD       PTSUNNY   71  43  36 S12       30.15F                  
HOBBS          MOSUNNY   70  46  43 SE8       30.19F                  


$$

Return to Home page


Western Regional Climate Center, wrcc@dri.edu